Location: Texas Valley
(42.4862°N, 75.9730°W)
Time: 01:48:50
(UTC+00:00)

Tiangong - Pass Details

Date: 22 April 2024
Orbit: 372 x 375 km, 41.5° (Epoch: 20 May)

Event Time Altitude Azimuth Distance (km) Brightness Sun altitude
Rises 00:19:57 0° 253° (WSW) 2,262 2.7 -5.5°
Reaches altitude 10° 00:22:03 10° 250° (WSW) 1,404 1.5 -5.8°
Maximum altitude 00:25:10 60° 170° (S) 440 -2.0 -6.4°
Drops below altitude 10° 00:28:17 10° 89° (E) 1,393 0.1 -6.9°
Enters shadow 00:28:47 - 88° (E) 1,595 0.4 -7.0°
